Location: Newark
(55.7083°N, 13.1992°E)
Time: 01:45:25
(UTC+00:00)

ESTCUBE 1 - Visible Passes

Search period start: 03 April 2020 00:00
Search period end: 13 April 2020 00:00
Orbit: 646 x 661 km, 98.0° (Epoch: 02 April)

Date Brightness Start Highest point End Pass type
(mag) Time Alt. Az. Time Alt. Az. Time Alt. Az.
03 Apr ? 19:20:15 10° ENE 19:21:59 12° NE 19:23:43 10° NNE visible
03 Apr ? 20:57:35 52° E 20:57:51 53° ENE 21:02:15 10° N visible
03 Apr ? 22:35:27 25° W 22:35:27 25° W 22:38:43 10° NW visible
04 Apr ? 19:47:37 15° E 19:49:16 18° NE 19:52:17 10° N visible
04 Apr ? 21:25:28 88° E 21:25:29 88° ENE 21:30:01 10° NNW visible
04 Apr ? 23:03:20 16° W 23:03:20 16° W 23:05:42 10° NW visible
05 Apr ? 20:15:30 24° E 20:16:40 27° ENE 20:20:25 10° N visible
05 Apr ? 21:53:21 55° W 21:53:21 55° W 21:57:39 10° NNW visible
06 Apr ? 20:43:23 38° E 20:44:09 42° ENE 20:48:23 10° N visible
06 Apr ? 22:21:14 33° W 22:21:14 33° W 22:25:08 10° NNW visible
07 Apr ? 19:33:24 11° E 19:35:40 15° NE 19:38:09 10° NNE visible
07 Apr ? 21:11:16 63° ESE 21:11:43 69° ENE 21:16:12 10° NNW visible
07 Apr ? 22:49:07 20° W 22:49:07 20° W 22:52:20 10° NW visible
08 Apr ? 20:01:17 18° E 20:03:01 22° NE 20:06:27 10° N visible
08 Apr ? 21:39:09 70° SW 21:39:24 72° WSW 21:43:54 10° NNW visible
08 Apr ? 23:17:00 12° W 23:17:01 12° W 23:18:52 10° WNW visible
09 Apr ? 20:29:10 28° E 20:30:27 33° ENE 20:34:29 10° N visible
09 Apr ? 22:07:02 42° WSW 22:07:10 42° W 22:11:28 10° NNW visible
10 Apr ? 19:20:22 10° ENE 19:22:06 12° NE 19:23:50 10° NNE visible
10 Apr ? 20:57:03 44° ESE 20:57:59 53° ENE 21:02:21 10° N visible
10 Apr ? 22:34:54 26° W 22:35:03 26° W 22:38:50 10° NW visible
11 Apr ? 19:47:04 13° E 19:49:23 18° NE 19:52:24 10° N visible
11 Apr ? 21:24:56 65° SSE 21:25:36 88° ENE 21:30:07 10° NNW visible
11 Apr ? 23:02:48 16° W 23:03:03 16° W 23:05:47 10° NW visible
12 Apr ? 20:14:57 20° E 20:16:46 27° ENE 20:20:32 10° N visible
12 Apr ? 21:52:49 52° SW 21:53:20 55° W 21:57:45 10° NNW visible
